Torna al catalogo

DELTA 1 DEB

AttivoSSO
NORAD 6214·DEBRIS·🇺🇸 United States

Lanciato Feb 28, 1966 da Cape Canaveral Space Force Station

Loading…

Prossimi Passaggi (prossime 24 ore)

TLE

AggiornatoSource: Space-Track

Epoca: Sep 14, 2026, 12:18 UTC

1 06214U 66016E   26257.51264740  .00000027  00000-0  39826-3 0  9993
2 06214 101.7677 257.8844 0119540 347.9228 163.6333 12.62822168786191

Traccia DELTA 1 DEB in tempo reale con AllMySat

Download on the App Store